MDT,Max TemperatureF,Mean TemperatureF,Min TemperatureF,Max Dew PointF,MeanDew PointF,Min DewpointF,Max Humidity, Mean Humidity, Min Humidity, Max Sea Level PressureIn, Mean Sea Level PressureIn, Min Sea Level PressureIn, Max VisibilityMiles, Mean VisibilityMiles, Min VisibilityMiles, Max Wind SpeedMPH, Mean Wind SpeedMPH, Max Gust SpeedMPH,PrecipitationIn, CloudCover, Events, WindDirDegrees
2013-3-1,60,44,28,18,12,2,48,30,17,30.41,30.34,30.27,10,10,10,12,6,,0.00,0,,16
2013-3-2,64,46,28,22,19,17,63,38,18,30.45,30.34,30.22,10,10,10,9,4,,0.00,0,,14
2013-3-3,72,50,29,26,16,3,54,28,8,30.21,30.04,29.90,10,10,10,30,7,34,0.00,1,,269
2013-3-4,66,52,37,22,18,15,45,24,14,30.15,29.93,29.83,10,10,10,34,11,44,0.00,4,,281
2013-3-5,62,44,27,24,19,13,73,37,16,30.34,30.24,30.16,10,10,10,13,6,21,0.00,0,,132
2013-3-6,68,54,40,25,22,18,44,30,18,30.20,30.09,29.97,10,10,10,22,9,28,0.00,2,,178
2013-3-7,72,53,34,22,17,11,45,26,13,30.10,30.01,29.91,10,10,10,16,5,23,0.00,0,,202
2013-3-8,63,50,36,44,26,11,87,46,21,29.99,29.89,29.79,10,10,5,29,9,37,0.04,4,Rain-Thunderstorm,204
2013-3-9,48,40,33,33,23,14,85,52,25,29.99,29.88,29.81,10,10,10,26,12,33,0.00,5,,282
2013-3-10,52,43,34,32,26,14,80,55,28,30.18,30.09,30.00,10,10,10,9,4,,0.00,5,Rain,40
2013-3-11,63,44,25,19,16,12,66,35,14,30.22,30.13,30.02,10,10,10,7,3,,0.00,0,,348
2013-3-12,66,48,29,22,19,15,57,31,17,30.28,30.20,30.12,10,10,10,12,5,,0.00,0,,24
2013-3-13,71,51,31,24,21,16,61,32,15,30.40,30.31,30.23,10,10,10,13,4,17,0.00,0,,13
2013-3-14,73,54,36,23,17,11,46,24,11,30.39,30.31,30.23,10,10,10,10,4,,0.00,0,,335
2013-3-15,78,57,36,19,14,9,32,19,10,30.25,30.14,29.99,10,10,10,10,4,,0.00,0,,311
2013-3-16,75,62,48,35,20,13,48,20,11,30.00,29.93,29.80,10,10,10,28,9,33,0.00,1,,265
2013-3-17,72,54,37,35,20,-4,72,34,7,29.94,29.86,29.74,10,10,7,34,11,41,0.00,1,,250
2013-3-18,71,54,38,16,7,-2,36,15,8,30.04,29.98,29.91,10,10,10,31,12,39,0.00,0,,271
2013-3-19,65,52,40,20,11,2,29,20,16,30.21,30.08,30.01,10,10,10,18,4,31,0.00,3,,351
2013-3-20,65,48,30,22,17,11,49,29,17,30.27,30.12,29.91,10,10,10,17,5,24,0.00,1,,204
2013-3-21,73,61,49,29,19,3,37,22,9,29.91,29.80,29.69,10,10,10,32,13,40,0.00,0,,280
2013-3-22,70,52,35,30,15,6,44,24,13,29.86,29.77,29.67,10,10,7,36,9,44,0.00,1,,283
2013-3-23,55,43,31,28,4,-14,49,21,9,30.10,29.88,29.76,10,10,2,40,12,52,0.00,0,,309
2013-3-24,59,40,20,2,-7,-17,20,15,10,30.14,30.04,29.89,10,10,10,23,5,29,0.00,1,,349
2013-3-25,54,38,21,8,4,-4,47,25,15,30.23,30.14,30.08,10,10,10,10,6,,0.00,0,,360
2013-3-26,68,46,25,14,9,0,36,22,12,30.21,30.10,29.97,10,10,7,30,8,37,0.00,0,,163
2013-3-27,73,54,36,15,12,7,30,18,10,30.12,30.05,29.97,10,10,10,18,7,26,0.00,0,,231
2013-3-28,74,60,47,24,18,10,30,19,12,30.17,30.11,30.05,10,10,4,24,8,46,0.00,3,,234
2013-3-29,77,62,48,23,17,13,33,20,10,30.23,30.16,30.08,10,10,10,16,5,24,0.00,0,,287
2013-3-30,75,56,37,23,17,9,35,21,12,30.22,30.14,30.02,10,10,10,17,4,30,0.00,2,,270
2013-3-31,73,59,45,32,25,20,36,27,17,30.16,30.08,29.99,10,10,10,14,7,23,0.00,2,,182